Location: Buttermere
(51.3333°N, 1.5167°W)
Time: 22:15:53
(UTC+00:00)

Cosmos 2082 Rocket - Pass Details

Date: 18 September 2020
Orbit: 834 x 853 km, 71.0° (Epoch: 30 October)

Event Time Altitude Azimuth Distance (km) Brightness Sun altitude
Rises 18:53:17 0° 325° (NW) 3,393 6.1 -7.1°
Reaches altitude 10° 18:57:20 10° 354° (N) 2,457 4.9 -7.7°
Maximum altitude 18:59:48 13° 20° (NNE) 2,259 4.4 -8.1°
Drops below altitude 10° 19:02:15 10° 46° (NE) 2,455 4.3 -8.5°
Enters shadow 19:04:48 - 66° (ENE) 2,985 4.6 -8.9°
